| time (UTC) | temp F | wind direction | speed MPH | gust MPH | rain 1hr in | rain 24hr in | rain mn in | humidity % | barometer mb |
| 20260507001046 | 46 | 14 | 1.0 | 3.0 | 0.00 | 0.57 | 0.57 | 89 | 1009.5 |
| 20260507000549 | 46 | 355 | 0.0 | 2.0 | 0.00 | 0.57 | 0.57 | 89 | 1009.4 |
| 20260507000054 | 46 | 355 | 0.0 | 2.0 | 0.00 | 0.57 | 0.57 | 89 | 1009.5 |
| 20260506235548 | 46 | 0 | 0.0 | 2.0 | 0.00 | 0.57 | 0.57 | 89 | 1009.4 |
| 20260506235047 | 46 | 0 | 0.0 | 2.0 | 0.00 | 0.57 | 0.57 | 89 | 1009.5 |
| 20260506234559 | 47 | 0 | 0.0 | 2.0 | 0.00 | 0.57 | 0.57 | 89 | 1009.1 |
| 20260506234047 | 46 | 326 | 0.0 | 3.0 | 0.00 | 0.57 | 0.57 | 88 | 1009.2 |
| 20260506233551 | 47 | 0 | 0.0 | 5.0 | 0.00 | 0.57 | 0.57 | 89 | 1009.2 |
| 20260506233053 | 47 | 351 | 0.0 | 5.0 | 0.00 | 0.57 | 0.57 | 89 | 1009.1 |
| 20260506232548 | 47 | 352 | 0.0 | 1.0 | 0.00 | 0.57 | 0.57 | 89 | 1009.2 |
| 20260506232048 | 47 | 330 | 0.0 | 2.0 | 0.00 | 0.57 | 0.57 | 89 | 1009.1 |
| 20260506231608 | 47 | 0 | 0.0 | 4.0 | 0.00 | 0.57 | 0.57 | 89 | 1009.1 |
| 20260506231048 | 47 | 339 | 1.0 | 4.0 | 0.00 | 0.57 | 0.57 | 89 | 1009.2 |
| 20260506230547 | 47 | 25 | 0.0 | 2.0 | 0.00 | 0.57 | 0.57 | 89 | 1009.1 |
| 20260506230121 | 47 | 12 | 0.0 | 4.0 | 0.00 | 0.57 | 0.57 | 89 | 1008.9 |
| 20260506225548 | 47 | 352 | 0.0 | 4.0 | 0.00 | 0.57 | 0.57 | 89 | 1008.9 |
| 20260506225047 | 47 | 349 | 1.0 | 4.0 | 0.00 | 0.57 | 0.57 | 89 | 1008.6 |
| 20260506224553 | 47 | 357 | 0.0 | 2.0 | 0.00 | 0.57 | 0.57 | 89 | 1008.5 |
| 20260506224046 | 47 | 354 | 0.0 | 3.0 | 0.00 | 0.57 | 0.57 | 89 | 1008.6 |
| 20260506223550 | 47 | 354 | 1.0 | 3.0 | 0.00 | 0.57 | 0.57 | 88 | 1008.3 |
| 20260506223057 | 48 | 355 | 1.0 | 2.0 | 0.00 | 0.57 | 0.57 | 89 | 1008.2 |
| 20260506222547 | 48 | 10 | 0.0 | 2.0 | 0.00 | 0.57 | 0.57 | 89 | 1008.2 |
| 20260506222052 | 48 | 335 | 0.0 | 3.0 | 0.00 | 0.57 | 0.57 | 89 | 1008.3 |
| 20260506221615 | 48 | 18 | 1.0 | 3.0 | 0.00 | 0.57 | 0.57 | 89 | 1008.2 |
| 20260506221048 | 48 | 165 | 0.0 | 4.0 | 0.00 | 0.57 | 0.57 | 88 | 1008.1 |
| 20260506220551 | 48 | 165 | 2.0 | 11.0 | 0.00 | 0.57 | 0.57 | 88 | 1007.9 |
| 20260506220129 | 48 | 90 | 2.0 | 11.0 | 0.00 | 0.57 | 0.57 | 88 | 1007.8 |
| 20260506215549 | 48 | 356 | 3.0 | 11.0 | 0.00 | 0.57 | 0.57 | 88 | 1007.7 |
| 20260506215048 | 48 | 0 | 2.0 | 8.0 | 0.01 | 0.57 | 0.57 | 88 | 1007.6 |
| 20260506214552 | 49 | 82 | 3.0 | 6.0 | 0.02 | 0.57 | 0.57 | 88 | 1007.4 |
| 20260506214048 | 49 | 95 | 2.0 | 12.0 | 0.03 | 0.57 | 0.57 | 89 | 1007.7 |
| 20260506213547 | 49 | 113 | 3.0 | 12.0 | 0.03 | 0.57 | 0.57 | 89 | 1007.4 |
| 20260506213109 | 49 | 81 | 3.0 | 6.0 | 0.03 | 0.57 | 0.57 | 90 | 1007.4 |
| 20260506212548 | 49 | 59 | 1.0 | 9.0 | 0.03 | 0.57 | 0.57 | 90 | 1007.4 |
| 20260506212048 | 49 | 37 | 3.0 | 9.0 | 0.04 | 0.57 | 0.57 | 89 | 1007.1 |
| 20260506211555 | 50 | 86 | 3.0 | 9.0 | 0.04 | 0.57 | 0.57 | 89 | 1007.0 |
| 20260506211047 | 50 | 5 | 3.0 | 6.0 | 0.04 | 0.57 | 0.57 | 89 | 1006.9 |
| 20260506210548 | 51 | 109 | 2.0 | 5.0 | 0.05 | 0.57 | 0.57 | 90 | 1006.9 |
| 20260506210100 | 51 | 50 | 1.0 | 5.0 | 0.05 | 0.57 | 0.57 | 90 | 1006.8 |
| 20260506205547 | 52 | 20 | 3.0 | 5.0 | 0.05 | 0.57 | 0.57 | 89 | 1006.6 |
| 20260506205049 | 53 | 171 | 2.0 | 4.0 | 0.04 | 0.56 | 0.56 | 88 | 1006.4 |
| 20260506204605 | 54 | 359 | 0.0 | 6.0 | 0.03 | 0.55 | 0.55 | 89 | 1006.0 |
| 20260506204049 | 56 | 37 | 2.0 | 6.0 | 0.02 | 0.54 | 0.54 | 88 | 1006.1 |
| 20260506203548 | 58 | 198 | 0.0 | 1.0 | 0.02 | 0.54 | 0.54 | 92 | 1005.6 |
| 20260506203052 | 58 | 309 | 0.0 | 2.0 | 0.02 | 0.54 | 0.54 | 92 | 1005.3 |
| 20260506202548 | 58 | 0 | 0.0 | 2.0 | 0.02 | 0.54 | 0.54 | 92 | 1005.5 |
| 20260506202049 | 58 | 340 | 0.0 | 2.0 | 0.01 | 0.52 | 0.52 | 92 | 1005.4 |
| 20260506201553 | 58 | 315 | 0.0 | 2.0 | 0.01 | 0.52 | 0.52 | 92 | 1005.3 |
| 20260506201048 | 58 | 0 | 0.0 | 3.0 | 0.01 | 0.52 | 0.52 | 92 | 1005.3 |
| 20260506200548 | 58 | 333 | 0.0 | 4.0 | 0.00 | 0.52 | 0.52 | 92 | 1005.4 |
| 20260506200053 | 58 | 304 | 1.0 | 4.0 | 0.00 | 0.52 | 0.52 | 92 | 1005.5 |
| 20260506195552 | 58 | 317 | 1.0 | 4.0 | 0.00 | 0.52 | 0.52 | 91 | 1005.3 |
| 20260506195047 | 58 | 310 | 0.0 | 2.0 | 0.00 | 0.52 | 0.52 | 91 | 1005.3 |
| 20260506194552 | 58 | 310 | 0.0 | 3.0 | 0.00 | 0.52 | 0.52 | 91 | 1005.5 |
| 20260506194049 | 58 | 318 | 0.0 | 3.0 | 0.00 | 0.52 | 0.52 | 91 | 1005.6 |
| 20260506193547 | 58 | 304 | 0.0 | 3.0 | 0.00 | 0.52 | 0.52 | 91 | 1005.5 |
| 20260506193050 | 58 | 302 | 0.0 | 3.0 | 0.00 | 0.52 | 0.52 | 91 | 1005.6 |
| 20260506192548 | 58 | 330 | 0.0 | 3.0 | 0.00 | 0.52 | 0.52 | 91 | 1005.7 |
| 20260506192048 | 58 | 0 | 1.0 | 3.0 | 0.00 | 0.52 | 0.52 | 91 | 1005.8 |
| 20260506191553 | 58 | 302 | 0.0 | 3.0 | 0.00 | 0.52 | 0.52 | 91 | 1005.7 |
| 20260506191048 | 58 | 304 | 0.0 | 3.0 | 0.00 | 0.52 | 0.52 | 91 | 1005.8 |
| 20260506190547 | 58 | 346 | 1.0 | 5.0 | 0.00 | 0.52 | 0.52 | 92 | 1005.8 |
| 20260506190050 | 58 | 310 | 0.0 | 5.0 | 0.00 | 0.52 | 0.52 | 92 | 1005.8 |
| 20260506185547 | 58 | 280 | 2.0 | 10.0 | 0.00 | 0.52 | 0.52 | 92 | 1005.6 |
| 20260506185046 | 58 | 299 | 1.0 | 10.0 | 0.00 | 0.52 | 0.52 | 91 | 1005.6 |
| 20260506184622 | 58 | 296 | 1.0 | 10.0 | 0.00 | 0.52 | 0.52 | 91 | 1005.8 |
| 20260506184047 | 58 | 311 | 1.0 | 5.0 | 0.00 | 0.52 | 0.52 | 91 | 1005.9 |
| 20260506183551 | 58 | 357 | 1.0 | 7.0 | 0.00 | 0.52 | 0.52 | 92 | 1006.0 |
| 20260506183102 | 58 | 0 | 1.0 | 7.0 | 0.01 | 0.52 | 0.52 | 92 | 1005.9 |
| 20260506182547 | 58 | 297 | 3.0 | 7.0 | 0.01 | 0.52 | 0.52 | 92 | 1006.0 |
| 20260506182051 | 58 | 300 | 1.0 | 5.0 | 0.01 | 0.52 | 0.52 | 92 | 1006.1 |
| 20260506181553 | 58 | 340 | 1.0 | 5.0 | 0.01 | 0.52 | 0.52 | 92 | 1006.1 |
| 20260506181048 | 58 | 295 | 1.0 | 5.0 | 0.01 | 0.52 | 0.52 | 92 | 1006.0 |
| 20260506180548 | 57 | 0 | 1.0 | 5.0 | 0.01 | 0.52 | 0.52 | 92 | 1006.0 |
| 20260506180053 | 57 | 0 | 1.0 | 4.0 | 0.01 | 0.52 | 0.52 | 92 | 1006.1 |
| 20260506175547 | 57 | 281 | 1.0 | 3.0 | 0.02 | 0.52 | 0.52 | 92 | 1006.1 |
| 20260506175050 | 57 | 326 | 0.0 | 5.0 | 0.03 | 0.52 | 0.52 | 92 | 1006.0 |
| 20260506174552 | 57 | 332 | 1.0 | 5.0 | 0.03 | 0.52 | 0.52 | 92 | 1006.0 |
| 20260506174047 | 57 | 287 | 1.0 | 10.0 | 0.04 | 0.52 | 0.52 | 92 | 1005.9 |
| 20260506173547 | 57 | 311 | 1.0 | 10.0 | 0.05 | 0.52 | 0.52 | 92 | 1005.9 |
| 20260506173059 | 57 | 355 | 2.0 | 10.0 | 0.05 | 0.51 | 0.51 | 92 | 1005.9 |
| 20260506172549 | 57 | 0 | 1.0 | 9.0 | 0.06 | 0.51 | 0.51 | 92 | 1006.0 |
| 20260506172048 | 57 | 16 | 1.0 | 8.0 | 0.06 | 0.51 | 0.51 | 92 | 1006.1 |
| 20260506171559 | 57 | 319 | 0.0 | 6.0 | 0.06 | 0.51 | 0.51 | 92 | 1006.1 |
| 20260506171047 | 57 | 323 | 1.0 | 7.0 | 0.06 | 0.51 | 0.51 | 92 | 1006.1 |
| 20260506170548 | 57 | 296 | 3.0 | 7.0 | 0.06 | 0.51 | 0.51 | 92 | 1006.2 |
| 20260506170059 | 57 | 304 | 2.0 | 5.0 | 0.07 | 0.51 | 0.51 | 92 | 1006.2 |
| 20260506165548 | 57 | 314 | 1.0 | 4.0 | 0.06 | 0.50 | 0.50 | 92 | 1006.3 |
| 20260506165048 | 57 | 44 | 1.0 | 4.0 | 0.05 | 0.49 | 0.49 | 92 | 1006.3 |
| 20260506164554 | 57 | 301 | 0.0 | 4.0 | 0.06 | 0.49 | 0.49 | 92 | 1006.3 |
| 20260506164047 | 57 | 321 | 1.0 | 4.0 | 0.05 | 0.47 | 0.47 | 92 | 1006.3 |
| 20260506163548 | 57 | 307 | 1.0 | 2.0 | 0.05 | 0.46 | 0.46 | 92 | 1006.3 |
| 20260506163056 | 57 | 0 | 0.0 | 2.0 | 0.06 | 0.46 | 0.46 | 92 | 1006.5 |
| 20260506162548 | 57 | 313 | 0.0 | 1.0 | 0.06 | 0.45 | 0.45 | 92 | 1006.3 |
| 20260506162048 | 57 | 312 | 0.0 | 1.0 | 0.08 | 0.45 | 0.45 | 92 | 1006.4 |
| 20260506161553 | 57 | 0 | 0.0 | 5.0 | 0.09 | 0.45 | 0.45 | 91 | 1006.4 |
| 20260506161050 | 57 | 0 | 0.0 | 5.0 | 0.12 | 0.45 | 0.45 | 91 | 1006.4 |
| 20260506160549 | 57 | 340 | 2.0 | 5.0 | 0.13 | 0.45 | 0.45 | 91 | 1006.3 |
| 20260506160109 | 57 | 285 | 0.0 | 3.0 | 0.13 | 0.44 | 0.44 | 92 | 1006.2 |
| 20260506155548 | 57 | 286 | 0.0 | 3.0 | 0.14 | 0.44 | 0.44 | 91 | 1006.1 |
| 20260506155047 | 57 | 295 | 0.0 | 3.0 | 0.15 | 0.44 | 0.44 | 91 | 1006.2 |
| 20260506154554 | 57 | 0 | 1.0 | 6.0 | 0.15 | 0.43 | 0.43 | 91 | 1006.2 |
| 20260506154051 | 57 | 303 | 1.0 | 6.0 | 0.14 | 0.42 | 0.42 | 91 | 1006.3 |
| 20260506153546 | 57 | 0 | 0.0 | 7.0 | 0.14 | 0.41 | 0.41 | 91 | 1006.4 |
| 20260506153050 | 57 | 332 | 1.0 | 11.0 | 0.13 | 0.40 | 0.40 | 91 | 1006.5 |
| 20260506152548 | 57 | 39 | 3.0 | 11.0 | 0.13 | 0.39 | 0.39 | 91 | 1006.7 |
| 20260506152047 | 57 | 330 | 0.0 | 4.0 | 0.12 | 0.37 | 0.37 | 91 | 1006.6 |
| 20260506151557 | 57 | 327 | 1.0 | 7.0 | 0.12 | 0.36 | 0.36 | 91 | 1006.8 |
| 20260506151047 | 57 | 305 | 2.0 | 7.0 | 0.10 | 0.33 | 0.33 | 91 | 1006.8 |
| 20260506150547 | 57 | 301 | 0.0 | 7.0 | 0.09 | 0.32 | 0.32 | 91 | 1006.7 |
| 20260506150055 | 57 | 92 | 1.0 | 7.0 | 0.09 | 0.31 | 0.31 | 91 | 1006.4 |
| 20260506145548 | 57 | 359 | 2.0 | 8.0 | 0.09 | 0.30 | 0.30 | 91 | 1006.3 |
| 20260506145049 | 57 | 0 | 1.0 | 8.0 | 0.09 | 0.29 | 0.29 | 91 | 1006.3 |
| 20260506144601 | 57 | 347 | 2.0 | 8.0 | 0.09 | 0.28 | 0.28 | 91 | 1006.4 |
| 20260506144044 | 57 | 325 | 0.0 | 6.0 | 0.10 | 0.28 | 0.28 | 91 | 1006.2 |
| 20260506143548 | 57 | 345 | 1.0 | 6.0 | 0.11 | 0.27 | 0.27 | 91 | 1006.1 |
| 20260506143052 | 57 | 0 | 1.0 | 6.0 | 0.12 | 0.27 | 0.27 | 91 | 1006.2 |
| 20260506142547 | 57 | 318 | 1.0 | 5.0 | 0.11 | 0.25 | 0.25 | 91 | 1006.4 |
| 20260506142047 | 57 | 338 | 1.0 | 6.0 | 0.11 | 0.24 | 0.24 | 91 | 1006.4 |
| 20260506141550 | 57 | 319 | 1.0 | 6.0 | 0.12 | 0.24 | 0.24 | 91 | 1006.6 |
| 20260506141047 | 57 | 2 | 2.0 | 6.0 | 0.12 | 0.23 | 0.23 | 92 | 1006.5 |
| 20260506140547 | 57 | 284 | 1.0 | 3.0 | 0.14 | 0.23 | 0.23 | 92 | 1006.4 |
| 20260506140054 | 56 | 325 | 1.0 | 3.0 | 0.14 | 0.22 | 0.22 | 92 | 1006.4 |
| 20260506135546 | 56 | 339 | 1.0 | 2.0 | 0.13 | 0.21 | 0.21 | 92 | 1006.3 |
| 20260506135046 | 56 | 326 | 0.0 | 2.0 | 0.13 | 0.20 | 0.20 | 91 | 1006.6 |
| 20260506134556 | 56 | 320 | 1.0 | 2.0 | 0.13 | 0.19 | 0.19 | 91 | 1006.6 |
| 20260506134048 | 56 | 325 | 0.0 | 4.0 | 0.13 | 0.18 | 0.18 | 91 | 1006.6 |
| 20260506133547 | 56 | 0 | 0.0 | 4.0 | 0.12 | 0.16 | 0.16 | 91 | 1006.8 |
| 20260506133052 | 56 | 334 | 0.0 | 4.0 | 0.12 | 0.15 | 0.15 | 90 | 1006.9 |
| 20260506132552 | 56 | 318 | 1.0 | 6.0 | 0.12 | 0.14 | 0.14 | 90 | 1007.0 |
| 20260506132052 | 56 | 349 | 1.0 | 6.0 | 0.11 | 0.13 | 0.13 | 90 | 1007.1 |
| 20260506131604 | 55 | 290 | 1.0 | 8.0 | 0.11 | 0.12 | 0.12 | 90 | 1007.0 |
| 20260506131048 | 55 | 286 | 2.0 | 8.0 | 0.09 | 0.10 | 0.10 | 89 | 1007.3 |
| 20260506130548 | 55 | 314 | 1.0 | 6.0 | 0.08 | 0.09 | 0.09 | 90 | 1007.2 |
| 20260506130054 | 55 | 319 | 0.0 | 6.0 | 0.07 | 0.08 | 0.08 | 89 | 1007.4 |
| 20260506125546 | 55 | 0 | 0.0 | 0.0 | 0.07 | 0.07 | 0.07 | 89 | 1007.4 |
| 20260506125047 | 55 | 0 | 0.0 | 0.0 | 0.07 | 0.07 | 0.07 | 89 | 1007.5 |
| 20260506124552 | 55 | 0 | 0.0 | 0.0 | 0.06 | 0.06 | 0.06 | 89 | 1007.5 |
| 20260506124048 | 55 | 0 | 0.0 | 0.0 | 0.05 | 0.05 | 0.05 | 88 | 1007.5 |
| 20260506123547 | 55 | 0 | 0.0 | 0.0 | 0.03 | 0.03 | 0.03 | 88 | 1007.3 |
| 20260506123057 | 55 | 0 | 0.0 | 0.0 | 0.03 | 0.03 | 0.03 | 89 | 1007.4 |
| 20260506122547 | 55 | 0 | 0.0 | 0.0 | 0.02 | 0.02 | 0.02 | 90 | 1007.2 |
| 20260506122048 | 55 | 0 | 0.0 | 0.0 | 0.02 | 0.02 | 0.02 | 90 | 1007.0 |
| 20260506121557 | 55 | 0 | 0.0 | 0.0 | 0.01 | 0.01 | 0.01 | 90 | 1006.8 |
| 20260506121050 | 55 | 0 | 0.0 | 0.0 | 0.01 | 0.01 | 0.01 | 90 | 1006.8 |
| 20260506120548 | 55 | 0 | 0.0 | 0.0 | 0.01 | 0.01 | 0.01 | 89 | 1006.7 |
| 20260506120055 | 55 | 0 | 0.0 | 0.0 | 0.01 | 0.01 | 0.01 | 89 | 1006.9 |
| 20260506115548 | 55 | 0 | 0.0 | 0.0 | 0.00 | 0.00 | 0.00 | 89 | 1006.9 |
| 20260506115046 | 55 | 0 | 0.0 | 0.0 | 0.00 | 0.00 | 0.00 | 89 | 1007.1 |
| 20260506114558 | 54 | 0 | 0.0 | 0.0 | 0.00 | 0.00 | 0.00 | 89 | 1007.2 |
| 20260506114048 | 54 | 0 | 0.0 | 0.0 | 0.00 | 0.00 | 0.00 | 89 | 1007.1 |
| 20260506113547 | 54 | 0 | 0.0 | 0.0 | 0.00 | 0.00 | 0.00 | 89 | 1007.0 |
| 20260506113057 | 54 | 0 | 0.0 | 0.0 | 0.00 | 0.00 | 0.00 | 88 | 1006.9 |
| 20260506112549 | 54 | 0 | 0.0 | 0.0 | 0.00 | 0.00 | 0.00 | 88 | 1007.0 |
| 20260506112048 | 54 | 0 | 0.0 | 0.0 | 0.00 | 0.00 | 0.00 | 88 | 1007.0 |
| 20260506111550 | 54 | 0 | 0.0 | 0.0 | 0.00 | 0.00 | 0.00 | 88 | 1006.9 |
| 20260506111048 | 54 | 0 | 0.0 | 0.0 | 0.00 | 0.00 | 0.00 | 87 | 1006.8 |
| 20260506110548 | 54 | 0 | 0.0 | 0.0 | 0.00 | 0.00 | 0.00 | 87 | 1006.8 |
| 20260506110055 | 54 | 0 | 0.0 | 0.0 | 0.00 | 0.00 | 0.00 | 87 | 1006.6 |
| 20260506105548 | 54 | 0 | 0.0 | 0.0 | 0.00 | 0.00 | 0.00 | 86 | 1006.5 |
| 20260506105048 | 54 | 0 | 0.0 | 0.0 | 0.00 | 0.00 | 0.00 | 86 | 1006.6 |
| 20260506104555 | 54 | 0 | 0.0 | 0.0 | 0.00 | 0.00 | 0.00 | 86 | 1006.8 |
| 20260506104047 | 53 | 0 | 0.0 | 0.0 | 0.00 | 0.00 | 0.00 | 86 | 1006.8 |
| 20260506103547 | 53 | 0 | 0.0 | 0.0 | 0.00 | 0.00 | 0.00 | 87 | 1006.5 |
| 20260506103054 | 53 | 0 | 0.0 | 0.0 | 0.00 | 0.00 | 0.00 | 87 | 1006.5 |
| 20260506102547 | 53 | 0 | 0.0 | 0.0 | 0.00 | 0.00 | 0.00 | 87 | 1006.2 |
| 20260506102047 | 53 | 0 | 0.0 | 0.0 | 0.00 | 0.00 | 0.00 | 87 | 1006.2 |
| 20260506101552 | 53 | 0 | 0.0 | 0.0 | 0.00 | 0.00 | 0.00 | 87 | 1006.2 |
| 20260506101047 | 53 | 0 | 0.0 | 0.0 | 0.00 | 0.00 | 0.00 | 86 | 1006.3 |
| 20260506100547 | 53 | 0 | 0.0 | 0.0 | 0.00 | 0.00 | 0.00 | 86 | 1006.2 |
| 20260506100104 | 53 | 0 | 0.0 | 0.0 | 0.00 | 0.00 | 0.00 | 85 | 1006.3 |
| 20260506095548 | 53 | 0 | 0.0 | 0.0 | 0.00 | 0.00 | 0.00 | 84 | 1006.1 |
| 20260506095048 | 53 | 0 | 0.0 | 0.0 | 0.00 | 0.00 | 0.00 | 84 | 1006.3 |
| 20260506094614 | 53 | 0 | 0.0 | 0.0 | 0.00 | 0.00 | 0.00 | 84 | 1006.2 |
| 20260506094048 | 53 | 0 | 0.0 | 0.0 | 0.00 | 0.00 | 0.00 | 84 | 1006.2 |
| 20260506093548 | 53 | 0 | 0.0 | 0.0 | 0.00 | 0.00 | 0.00 | 85 | 1006.2 |
| 20260506093049 | 53 | 0 | 0.0 | 0.0 | 0.00 | 0.00 | 0.00 | 83 | 1006.5 |
| 20260506092548 | 54 | 0 | 0.0 | 0.0 | 0.00 | 0.00 | 0.00 | 84 | 1006.4 |
| 20260506092048 | 54 | 0 | 0.0 | 0.0 | 0.00 | 0.00 | 0.00 | 83 | 1006.3 |
| 20260506091556 | 54 | 0 | 0.0 | 0.0 | 0.00 | 0.00 | 0.00 | 83 | 1006.3 |
| 20260506091047 | 54 | 0 | 0.0 | 0.0 | 0.00 | 0.00 | 0.00 | 83 | 1006.3 |
| 20260506090546 | 54 | 0 | 0.0 | 0.0 | 0.00 | 0.00 | 0.00 | 83 | 1006.4 |
| 20260506090052 | 54 | 0 | 0.0 | 0.0 | 0.00 | 0.00 | 0.00 | 83 | 1006.4 |
| 20260506085547 | 54 | 0 | 0.0 | 0.0 | 0.00 | 0.00 | 0.00 | 82 | 1006.4 |
| 20260506085048 | 54 | 0 | 0.0 | 0.0 | 0.00 | 0.00 | 0.00 | 82 | 1006.4 |
| 20260506084558 | 54 | 0 | 0.0 | 0.0 | 0.00 | 0.00 | 0.00 | 82 | 1006.5 |
| 20260506084047 | 54 | 0 | 0.0 | 0.0 | 0.00 | 0.00 | 0.00 | 82 | 1006.5 |
| 20260506083547 | 55 | 0 | 0.0 | 0.0 | 0.00 | 0.00 | 0.00 | 81 | 1006.5 |
| 20260506083052 | 55 | 0 | 0.0 | 0.0 | 0.00 | 0.00 | 0.00 | 80 | 1006.5 |
| 20260506082546 | 55 | 0 | 0.0 | 0.0 | 0.00 | 0.00 | 0.00 | 81 | 1006.6 |
| 20260506082047 | 55 | 0 | 0.0 | 0.0 | 0.00 | 0.00 | 0.00 | 81 | 1006.7 |
| 20260506081553 | 55 | 0 | 0.0 | 0.0 | 0.00 | 0.00 | 0.00 | 80 | 1006.7 |
| 20260506081048 | 56 | 0 | 0.0 | 0.0 | 0.00 | 0.00 | 0.00 | 79 | 1006.5 |
| 20260506080547 | 56 | 0 | 0.0 | 0.0 | 0.00 | 0.00 | 0.00 | 79 | 1006.7 |
| 20260506073056 | 56 | 0 | 0.0 | 0.0 | 0.00 | 0.03 | 0.00 | 78 | 1006.5 |
| 20260506072547 | 56 | 0 | 0.0 | 0.0 | 0.00 | 0.03 | 0.00 | 78 | 1006.4 |
| 20260506072047 | 56 | 0 | 0.0 | 0.0 | 0.00 | 0.03 | 0.00 | 77 | 1006.6 |
| 20260506071559 | 56 | 0 | 0.0 | 0.0 | 0.00 | 0.03 | 0.00 | 78 | 1006.7 |
| 20260506071048 | 56 | 0 | 0.0 | 0.0 | 0.00 | 0.03 | 0.00 | 78 | 1006.8 |
| 20260506070552 | 55 | 0 | 0.0 | 0.0 | 0.00 | 0.03 | 0.00 | 81 | 1006.9 |
| 20260506062047 | 52 | 0 | 0.0 | 0.0 | 0.00 | 0.03 | 0.00 | 90 | 1007.4 |
| 20260506061552 | 52 | 0 | 0.0 | 0.0 | 0.00 | 0.03 | 0.00 | 90 | 1007.2 |
| 20260506061047 | 51 | 0 | 0.0 | 0.0 | 0.00 | 0.03 | 0.00 | 89 | 1007.3 |
| 20260506060548 | 51 | 0 | 0.0 | 0.0 | 0.00 | 0.03 | 0.00 | 89 | 1007.3 |
| 20260506051047 | 52 | 0 | 0.0 | 0.0 | 0.00 | 0.03 | 0.00 | 88 | 1007.9 |
| 20260506050548 | 52 | 0 | 0.0 | 0.0 | 0.00 | 0.03 | 0.00 | 88 | 1008.0 |
| 20260506045049 | 52 | 0 | 0.0 | 0.0 | 0.00 | 0.03 | 0.00 | 88 | 1007.9 |
| 20260506044550 | 52 | 0 | 0.0 | 0.0 | 0.00 | 0.03 | 0.00 | 88 | 1007.9 |
| 20260506044048 | 52 | 0 | 0.0 | 0.0 | 0.00 | 0.03 | 0.00 | 87 | 1007.9 |
| 20260506043548 | 52 | 0 | 0.0 | 0.0 | 0.00 | 0.03 | 0.00 | 87 | 1007.9 |
| 20260506043050 | 52 | 0 | 0.0 | 0.0 | 0.00 | 0.03 | 0.00 | 87 | 1007.7 |
| 20260506042545 | 52 | 0 | 0.0 | 0.0 | 0.00 | 0.03 | 0.00 | 88 | 1007.9 |
| 20260506042049 | 52 | 0 | 0.0 | 0.0 | 0.00 | 0.03 | 0.00 | 89 | 1007.9 |
| 20260506041554 | 52 | 0 | 0.0 | 0.0 | 0.00 | 0.03 | 0.00 | 89 | 1008.0 |
| 20260506041045 | 51 | 0 | 0.0 | 0.0 | 0.00 | 0.03 | 0.00 | 89 | 1008.0 |
| 20260506040545 | 51 | 0 | 0.0 | 0.0 | 0.00 | 0.03 | 0.00 | 88 | 1008.1 |
| 20260506040107 | 51 | 0 | 0.0 | 0.0 | 0.00 | 0.03 | 0.00 | 88 | 1008.1 |
| 20260506035545 | 51 | 0 | 0.0 | 0.0 | 0.00 | 0.03 | 0.03 | 87 | 1008.1 |
| 20260506035048 | 51 | 0 | 0.0 | 0.0 | 0.00 | 0.03 | 0.03 | 87 | 1008.1 |
| 20260506034553 | 51 | 0 | 0.0 | 0.0 | 0.00 | 0.03 | 0.03 | 86 | 1008.3 |
| 20260506034048 | 52 | 0 | 0.0 | 0.0 | 0.00 | 0.03 | 0.03 | 87 | 1008.1 |
| 20260506033549 | 52 | 0 | 0.0 | 0.0 | 0.00 | 0.03 | 0.03 | 87 | 1008.1 |
| 20260506033056 | 52 | 0 | 0.0 | 0.0 | 0.00 | 0.03 | 0.03 | 87 | 1008.0 |
| 20260506032548 | 52 | 0 | 0.0 | 0.0 | 0.00 | 0.03 | 0.03 | 85 | 1008.2 |
| 20260506032045 | 52 | 0 | 0.0 | 0.0 | 0.00 | 0.03 | 0.03 | 85 | 1008.1 |
| 20260506031552 | 52 | 0 | 0.0 | 0.0 | 0.00 | 0.03 | 0.03 | 84 | 1008.0 |
| 20260506031046 | 53 | 0 | 0.0 | 0.0 | 0.00 | 0.03 | 0.03 | 84 | 1008.1 |
| 20260506030545 | 53 | 0 | 0.0 | 0.0 | 0.00 | 0.03 | 0.03 | 82 | 1008.0 |
| 20260506025545 | 54 | 0 | 0.0 | 0.0 | 0.00 | 0.03 | 0.03 | 82 | 1008.1 |
| 20260506025045 | 55 | 0 | 0.0 | 0.0 | 0.00 | 0.03 | 0.03 | 82 | 1008.0 |
| 20260506024557 | 54 | 0 | 0.0 | 0.0 | 0.00 | 0.03 | 0.03 | 82 | 1008.1 |
| 20260506024045 | 54 | 0 | 0.0 | 0.0 | 0.00 | 0.03 | 0.03 | 82 | 1008.1 |
| 20260506023545 | 54 | 0 | 0.0 | 0.0 | 0.00 | 0.03 | 0.03 | 82 | 1008.1 |
| 20260506023051 | 54 | 0 | 0.0 | 0.0 | 0.00 | 0.03 | 0.03 | 83 | 1008.1 |
| 20260506022545 | 54 | 0 | 0.0 | 0.0 | 0.00 | 0.03 | 0.03 | 83 | 1008.1 |
| 20260506022048 | 55 | 0 | 0.0 | 0.0 | 0.00 | 0.03 | 0.03 | 81 | 1008.0 |
| 20260506021559 | 55 | 0 | 0.0 | 0.0 | 0.00 | 0.03 | 0.03 | 82 | 1007.9 |
| 20260506021048 | 55 | 0 | 0.0 | 0.0 | 0.00 | 0.03 | 0.03 | 82 | 1008.0 |
| 20260506020549 | 55 | 0 | 0.0 | 0.0 | 0.00 | 0.03 | 0.03 | 80 | 1008.1 |
| 20260506020053 | 56 | 0 | 0.0 | 0.0 | 0.00 | 0.03 | 0.03 | 80 | 1008.1 |
| 20260506015545 | 56 | 0 | 0.0 | 0.0 | 0.00 | 0.03 | 0.03 | 79 | 1008.1 |
| 20260506015048 | 57 | 0 | 0.0 | 0.0 | 0.00 | 0.03 | 0.03 | 79 | 1008.2 |
| 20260506014603 | 57 | 0 | 0.0 | 0.0 | 0.00 | 0.03 | 0.03 | 78 | 1008.2 |
| 20260506014045 | 57 | 0 | 0.0 | 0.0 | 0.00 | 0.03 | 0.03 | 78 | 1008.3 |
| 20260506013544 | 57 | 0 | 0.0 | 0.0 | 0.00 | 0.03 | 0.03 | 78 | 1008.2 |
| 20260506013054 | 58 | 0 | 0.0 | 0.0 | 0.00 | 0.03 | 0.03 | 77 | 1008.1 |
| 20260506012545 | 58 | 0 | 0.0 | 0.0 | 0.00 | 0.03 | 0.03 | 77 | 1008.0 |
| 20260506012045 | 58 | 0 | 0.0 | 0.0 | 0.00 | 0.03 | 0.03 | 77 | 1008.0 |
| 20260506011550 | 58 | 0 | 0.0 | 0.0 | 0.00 | 0.03 | 0.03 | 77 | 1007.8 |
| 20260506011045 | 58 | 0 | 0.0 | 0.0 | 0.00 | 0.03 | 0.03 | 77 | 1007.7 |
| 20260506010548 | 57 | 0 | 0.0 | 0.0 | 0.00 | 0.03 | 0.03 | 77 | 1007.6 |
| 20260506010058 | 57 | 0 | 0.0 | 0.0 | 0.00 | 0.03 | 0.03 | 77 | 1007.5 |
| 20260506005548 | 57 | 0 | 0.0 | 0.0 | 0.00 | 0.03 | 0.03 | 77 | 1007.5 |
| 20260506005044 | 58 | 0 | 0.0 | 0.0 | 0.00 | 0.03 | 0.03 | 76 | 1007.4 |
| 20260506004557 | 58 | 0 | 0.0 | 0.0 | 0.00 | 0.03 | 0.03 | 76 | 1007.3 |
| 20260506004044 | 59 | 0 | 0.0 | 0.0 | 0.00 | 0.03 | 0.03 | 75 | 1007.2 |
| 20260506003546 | 59 | 0 | 0.0 | 0.0 | 0.00 | 0.03 | 0.03 | 74 | 1007.2 |
| 20260506003050 | 60 | 0 | 0.0 | 0.0 | 0.00 | 0.03 | 0.03 | 75 | 1007.2 |
| 20260506002544 | 61 | 0 | 0.0 | 0.0 | 0.00 | 0.03 | 0.03 | 75 | 1007.2 |
| 20260506002044 | 61 | 0 | 0.0 | 0.0 | 0.00 | 0.03 | 0.03 | 74 | 1007.2 |
| 20260506001558 | 61 | 0 | 0.0 | 0.0 | 0.00 | 0.03 | 0.03 | 73 | 1007.2 |